Powrót do katalogu

STARLINK-36894

AktywnyŁącznośćSSO
NORAD 67972·PAYLOAD·🇺🇸 United States

Wystrzelony Feb 25, 2026 z Vandenberg Space Force Base

Loading…

Następne Przeloty (najbliższe 24 godziny)

TLE

ŚwieżeSource: CelesTrak SupGP

Epoka: Sep 15, 2026, 03:44 UTC

1 67972C 26038M   26258.15604167  .00125430  00000+0  39047-2 0  2580
2 67972  97.2847 266.5773 0001917  88.3365 308.1496 15.33284176    19

Śledź STARLINK-36894 w czasie rzeczywistym z AllMySat

Download on the App Store